Lid_Strength_Index
8 8 8 8 7 7 7 7 8 8 9 9 9 8 7 7 6 6 6 7 8 8 8 9 9 9 9 11 12 12 13 12 12 16 16 16 17 16 16 15 15 15 15
8 8 8 8 8 8 8 8 8 9 10 10 11 10 9 8 8 8 8 7 8 9 9 10 10 9 10 11 12 13 13 13 12 14 18 17 17 16 16 16 16 16 16
9 9 9 9 9 9 9 9 10 10 11 11 12 12 12 11 9 9 8 9 9 9 9 10 10 11 11 11 12 12 13 13 13 16 18 17 18 16 17 16 17 17 17
10 9 10 10 10 10 10 10 11 11 11 12 13 13 13 13 13 12 12 11 11 11 11 11 11 11 11 12 13 13 13 14 14 15 17 17 17 17 17 17 18 18 18
12 11 11 10 10 10 11 12 12 12 13 13 13 14 14 14 14 14 13 13 12 12 12 12 12 12 12 11 13 13 14 14 15 15 17 18 18 18 18 18 18 17 17
13 13 13 13 13 12 12 13 13 13 13 14 14 14 14 14 12 11 12 14 13 13 13 14 13 13 12 10 10 10 12 13 14 15 17 17 17 17 17 17 17 18 19
15 14 14 14 14 13 13 13 13 13 14 14 14 14 14 14 12 11 11 14 13 13 13 14 14 14 13 12 10 10 11 10 12 14 16 15 16 16 16 17 17 16 17
15 15 15 14 14 14 14 14 14 14 15 15 15 15 15 15 12 11 11 13 14 14 14 14 14 14 14 13 13 13 14 13 12 13 13 14 14 15 14 14 15 15 16
15 15 15 15 15 15 15 15 16 18 18 18 17 18 18 16 12 12 12 13 14 14 14 14 14 15 13 12 13 14 14 14 12 12 12 12 11 11 13 14 16 17 18
16 15 16 16 17 16 16 16 18 19 17 18 17 19 18 18 13 12 12 13 14 15 15 14 14 14 12 11 13 14 15 14 13 13 12 11 11 11 11 13 15 17 18
17 16 17 17 18 17 17 18 19 19 18 20 18 17 14 14 14 12 11 13 13 15 15 15 14 12 11 10 11 13 13 13 12 13 13 13 13 13 12 13 13 14 18
18 18 18 18 18 18 21 20 20 21 21 20 18 16 15 15 14 13 11 10 12 14 14 14 14 11 10 10 12 11 11 12 12 14 14 14 14 14 13 13 12 12 12
21 19 17 17 18 19 20 19 20 22 22 21 18 16 15 15 14 12 11 10 10 13 13 13 13 12 10 10 11 10 11 12 13 14 14 14 14 13 13 13 13 14 13
17 17 18 18 17 18 14 15 16 16 17 16 16 16 16 15 15 15 13 12 11 12 12 13 12 11 11 11 11 11 11 12 14 14 14 14 14 15 14 14 15 16 16
16 15 14 13 14 15 17 18 17 16 14 15 15 15 15 15 14 13 13 12 11 12 13 14 14 14 13 13 14 12 11 11 13 13 13 14 14 14 14 14 14 14 16
19 16 15 17 18 17 18 17 11 11 11 10 10 12 13 11 10 11 11 10 10 11 14 16 16 15 15 14 14 14 14 13 13 14 12 12 12 14 17 17 16 17 16
22 19 15 15 18 18 17 17 18 13 9 8 9 9 9 9 10 10 10 9 9 11 15 16 17 16 16 16 16 14 15 16 17 17 16 17 13 13 13 15 17 17 17
22 19 16 14 16 17 16 13 14 14 13 13 10 10 10 10 9 10 10 10 11 11 15 16 16 15 14 15 16 18 18 17 16 16 14 13 12 12 14 16 17 19 18
18 13 11 14 15 14 13 12 12 14 13 14 14 13 15 12 12 12 11 14 15 16 16 17 17 17 17 17 17 16 15 15 16 17 19 23 22 18 20 19 18 18 18
18 14 13 14 14 15 15 12 11 12 14 15 16 17 16 16 18 19 19 18 18 19 19 20 21 21 21 21 21 21 20 21 23 25 25 24 23 21 21 21 20 20 21
19 16 14 15 17 16 15 17 15 14 15 17 17 14 13 19 20 21 21 23 22 22 22 23 24 25 26 26 25 25 24 26 28 27 27 26 24 23 23 21 22 22 22
20 19 17 16 16 16 17 17 17 17 17 18 20 19 16 21 23 24 24 25 26 27 28 26 27 29 30 29 28 27 29 30 31 30 28 26 25 25 24 24 24 22 23
19 18 17 17 17 17 18 18 18 19 20 21 21 21 22 24 24 26 26 28 27 29 29 28 30 29 31 31 31 33 30 30 30 31 29 29 28 28 28 26 25 26 25
19 19 18 18 18 19 19 19 20 20 21 21 22 23 23 24 24 26 27 28 28 27 27 27 27 28 28 31 33 36 37 36 38 36 35 34 34 32 30 28 26 25 24
20 19 19 19 20 20 20 21 21 22 22 22 23 23 24 26 26 25 25 26 25 25 25 26 28 29 29 31 33 35 36 29 34 35 38 36 35 36 36 35 32 30 27
21 21 20 20 20 20 21 21 22 22 22 23 23 24 26 26 25 25 25 25 25 25 26 28 28 30 31 33 35 31 30 25 29 29 36 37 36 37 37 34 32 31 28